Volver al catálogo

RE

ActivoCienciaVLEO
NORAD 38765·PAYLOAD·🇺🇸 United States

Lanzado Sep 13, 2012 desde Vandenberg Space Force Base

Loading…

Próximos Pases (próximas 24 horas)

TLE

ActualizadoSource: Space-Track

Época: Sep 14, 2026, 09:55 UTC

1 38765U 12048H   26257.41342414  .00005200  00000-0  21628-3 0  9998
2 38765  64.6541 251.3549 0077981 145.4092 215.2144 15.22209434128971

Sigue RE en tiempo real con AllMySat

Download on the App Store